Location: Newark
(41.9000°N, 12.4833°E)
Time: 10:30:21
(UTC+00:00)

EO-79 - Pass Details

Date: 26 May 2019
Orbit: 591 x 611 km, 97.9° (Epoch: 15 June)

Event Time Altitude Azimuth Distance (km) Brightness Sun altitude
Rises 22:34:17 0° 32° (NNE) 2,836 ? -26.4°
Reaches altitude 10° 22:37:15 10° 55° (NE) 1,928 ? -26.5°
Enters shadow 22:38:36 14° 73° (ENE) 1,673 ? -26.6°
